REAL (64875 NORAD) Tracking and Keplerian Element Data

This shows tracking and keplerian element data for the satellite.

Feedback or suggestion? Click here.




ElementValue
Catalog64875
NameREAL
Epoch Orbit2269
Epoch Day354.14145887
Epoch Year2025
RAAN58.1946
Inclination97.4283
Eccentricity0.0001302
Argument of Perigee90.2526
Mean Anonmoly269.8861
Mean Motion15.24563168
Decay Rate0.00012555
L11 64875U 25154G 25354.14145887 .00012555 00000+0 51224-3 0 9998
L22 64875 97.4283 58.1946 0001302 90.2526 269.8861 15.24563168 22698



Live tracking and technical data element details for REAL (NORAD 64875). REAL can be tracked NOW for your location showing map with azimuth and elevation plus other details from your city location.







IsCatalogInMostPopularTable: catalog: 64875, numindb: 5
Update: records affected: 1



GetName: 64875 REAL

Hit Count: updated at: Mon, 20 Apr 2026 08:59:11 GMT